Thermopolis, WY

2:32 AM MDT on September 30, 2016 (GMT -0600)
Thermopolis

Weather History for KTBX - March, 2013

Change the Weather History Date:

Sunday, March 31, 2013

  Actual Average (KWRL) Record (KWRL)
Temperature  
Mean Temperature 37 °F 41 °F  
Max Temperature 42 °F 56 °F 81 °F (2012)
Min Temperature 32 °F 27 °F 13 °F (2009)
Degree Days  
Heating Degree Days 28 24  
Month to date heating degree days 885  
Since 1 July heating degree days 6886  
Cooling Degree Days 0 0  
Month to date cooling degree days 0  
Year to date cooling degree days 0  
Moisture  
Dew Point 23 °F    
Average Humidity 56    
Maximum Humidity 87    
Minimum Humidity 26    
Precipitation  
Precipitation 0.00 in 0.02 in 0.16 in (2007)
Month to date precipitation 0.46  
Year to date precipitation 0.88  
Sea Level Pressure  
Sea Level Pressure 30.15 in    
Wind  
Wind Speed 16 mph (NNW)    
Max Wind Speed 25 mph    
Max Gust Speed 30 mph    
Visibility 10 miles    
Events      
T = Trace of Precipitation, MM = Missing Value Source: NWS Daily Summary

Daily Weather History Graph

Daily Weather History Graph

Search for Another Location

Airport or City:

Trip Planner

Search our weather history database for the weather conditions in past years. The results will help you decide how hot, cold, wet, or windy it might be!

Date:

Astronomy

Mar. 31, 2013 Rise Set
Actual Time 6:55 AM MDT 7:38 PM MDT
Civil Twilight 6:27 AM MDT 8:07 PM MDT
Nautical Twilight 5:52 AM MDT 8:42 PM MDT
Astronomical Twilight 5:17 AM MDT 9:17 PM MDT
Moon No Moon Rise 9:38 AM MDT (3/31)
Length of Visible Light 13h 40m
Length of Day
12h 42m
Waning Gibbous, 77% of the Moon is Illuminated
Mar 31
Waning Gibbous
Apr 2
Last Quarter
Apr 10
New
Apr 18
First Quarter
Apr 25
Full

Hourly Weather History & Observations

Time (MDT) Temp. Windchill Dew Point Humidity Pressure Visibility Wind Dir Wind Speed Gust Speed Precip Events Conditions
12:15 AM 33.8 °F 24.8 °F 26.6 °F 75% 30.23 in 10.0 mi SE 12.7 mph 18.4 mph N/A   Clear
12:35 AM 33.8 °F 24.3 °F 28.4 °F 81% 30.22 in 10.0 mi SSE 13.8 mph 20.7 mph N/A   Clear
12:55 AM 32.0 °F 22.1 °F 28.4 °F 87% 30.22 in 10.0 mi SE 13.8 mph - N/A   Clear
1:15 AM 33.8 °F 21.9 °F 26.6 °F 75% 30.21 in 10.0 mi SSE 21.9 mph - N/A   Clear
1:35 AM 33.8 °F 21.6 °F 28.4 °F 81% 30.21 in 10.0 mi SSE 23.0 mph - N/A   Clear
1:55 AM 33.8 °F 22.8 °F 28.4 °F 81% 30.20 in 10.0 mi SSE 18.4 mph 26.5 mph N/A   Clear
2:15 AM 33.8 °F 21.6 °F 26.6 °F 75% 30.18 in 10.0 mi SSE 23.0 mph 29.9 mph N/A   Clear
2:35 AM 33.8 °F 22.5 °F 28.4 °F 81% 30.18 in 10.0 mi SSE 19.6 mph 26.5 mph N/A   Clear
2:55 AM 33.8 °F 22.5 °F 26.6 °F 75% 30.15 in 10.0 mi SSE 19.6 mph 25.3 mph N/A   Clear
3:15 AM 32.0 °F 21.6 °F 26.6 °F 80% 30.15 in 10.0 mi SSE 15.0 mph - N/A   Clear
3:35 AM 32.0 °F 21.6 °F 26.6 °F 80% 30.14 in 10.0 mi SSE 15.0 mph 23.0 mph N/A   Clear
3:55 AM 32.0 °F 22.5 °F 26.6 °F 80% 30.13 in 10.0 mi SSE 12.7 mph - N/A   Clear
4:15 AM 33.8 °F 24.8 °F 26.6 °F 75% 30.13 in 10.0 mi SSE 12.7 mph - N/A   Clear
4:35 AM 33.8 °F 25.8 °F 26.6 °F 75% 30.13 in 10.0 mi SSE 10.4 mph - N/A   Clear
4:55 AM 32.0 °F 24.8 °F 26.6 °F 80% 30.12 in 10.0 mi SSE 8.1 mph - N/A   Clear
5:15 AM 32.0 °F 26.4 °F 24.8 °F 75% 30.12 in 10.0 mi South 5.8 mph - N/A   Clear
5:35 AM 32.0 °F 28.7 °F 26.6 °F 80% 30.12 in 10.0 mi SSW 3.5 mph - N/A   Clear
5:55 AM 39.2 °F - 12.2 °F 33% 30.11 in 10.0 mi Calm Calm - N/A   Clear
6:15 AM 41.0 °F 38.0 °F 8.6 °F 26% 30.11 in 10.0 mi North 4.6 mph - N/A   Clear
6:35 AM 41.0 °F 35.8 °F 8.6 °F 26% 30.11 in 10.0 mi North 8.1 mph - N/A   Clear
6:55 AM 41.0 °F 34.7 °F 8.6 °F 26% 30.11 in 10.0 mi North 10.4 mph - N/A   Clear
7:15 AM 37.4 °F 29.8 °F 10.4 °F 33% 30.11 in 10.0 mi North 11.5 mph - N/A   Clear
7:35 AM 39.2 °F 31.6 °F 12.2 °F 33% 30.12 in 10.0 mi North 12.7 mph - N/A   Clear
7:55 AM 39.2 °F 32.0 °F 12.2 °F 33% 30.12 in 10.0 mi North 11.5 mph - N/A   Clear
8:15 AM 39.2 °F 31.6 °F 12.2 °F 33% 30.12 in 10.0 mi North 12.7 mph - N/A   Clear
8:35 AM 39.2 °F 31.2 °F 14.0 °F 36% 30.12 in 10.0 mi North 13.8 mph - N/A   Clear
8:55 AM 37.4 °F 28.2 °F 17.6 °F 45% 30.12 in 10.0 mi North 16.1 mph - N/A   Clear
9:15 AM 37.4 °F 29.3 °F 19.4 °F 48% 30.13 in 10.0 mi North 12.7 mph - N/A   Clear
9:35 AM 39.2 °F 31.2 °F 19.4 °F 45% 30.13 in 10.0 mi North 13.8 mph - N/A   Clear
9:55 AM 39.2 °F 31.2 °F 21.2 °F 49% 30.13 in 10.0 mi North 13.8 mph - N/A   Clear
10:15 AM 41.0 °F 33.5 °F 21.2 °F 45% 30.14 in 10.0 mi North 13.8 mph - N/A   Clear
10:35 AM 41.0 °F 33.5 °F 23.0 °F 49% 30.14 in 10.0 mi NNW 13.8 mph - N/A   Clear
10:55 AM 41.0 °F 33.5 °F 23.0 °F 49% 30.15 in 10.0 mi North 13.8 mph - N/A   Clear
11:15 AM 41.0 °F 33.5 °F 21.2 °F 45% 30.16 in 10.0 mi NNW 13.8 mph - N/A   Clear
11:35 AM 41.0 °F 32.5 °F 23.0 °F 49% 30.16 in 10.0 mi NNW 17.3 mph - N/A   Clear
11:55 AM 41.0 °F 32.2 °F 23.0 °F 49% 30.16 in 10.0 mi NNW 18.4 mph - N/A   Clear
12:15 PM 41.0 °F 31.9 °F 24.8 °F 53% 30.17 in 10.0 mi NNW 19.6 mph - N/A   Clear
12:35 PM 41.0 °F 31.4 °F 23.0 °F 49% 30.17 in 10.0 mi NNW 21.9 mph - N/A   Clear
12:55 PM 41.0 °F 31.1 °F 24.8 °F 53% 30.17 in 10.0 mi NNW 23.0 mph - N/A   Clear
1:15 PM 41.0 °F 31.1 °F 26.6 °F 57% 30.17 in 10.0 mi NNW 23.0 mph - N/A   Clear
1:35 PM 41.0 °F 31.9 °F 26.6 °F 57% 30.18 in 10.0 mi NNW 19.6 mph - N/A   Clear
1:55 PM 42.8 °F 34.0 °F 26.6 °F 53% 30.17 in 10.0 mi NW 20.7 mph - N/A   Clear
2:15 PM 42.8 °F 34.3 °F 28.4 °F 57% 30.17 in 10.0 mi NNW 19.6 mph - N/A   Clear
2:35 PM 42.8 °F 34.0 °F 26.6 °F 53% 30.16 in 10.0 mi NNW 20.7 mph - N/A   Clear
2:55 PM 42.8 °F 33.3 °F 24.8 °F 49% 30.16 in 10.0 mi NNW 24.2 mph - N/A   Clear
3:15 PM 42.8 °F 33.8 °F 26.6 °F 53% 30.16 in 10.0 mi NNW 21.9 mph 28.8 mph N/A   Clear
3:35 PM 42.8 °F 33.8 °F 24.8 °F 49% 30.16 in 10.0 mi NW 21.9 mph - N/A   Clear
3:55 PM 42.8 °F 33.8 °F 24.8 °F 49% 30.15 in 10.0 mi NW 21.9 mph 27.6 mph N/A   Clear
4:15 PM 42.8 °F 34.0 °F 26.6 °F 53% 30.15 in 10.0 mi NNW 20.7 mph - N/A   Clear
4:35 PM 42.8 °F 34.0 °F 26.6 °F 53% 30.15 in 10.0 mi NNW 20.7 mph - N/A   Clear
4:55 PM 42.8 °F 34.0 °F 24.8 °F 49% 30.14 in 10.0 mi NW 20.7 mph - N/A   Clear
5:15 PM 42.8 °F 33.8 °F 26.6 °F 53% 30.14 in 10.0 mi NNW 21.9 mph - N/A   Clear
5:35 PM 42.8 °F 34.0 °F 24.8 °F 49% 30.14 in 10.0 mi NNW 20.7 mph - N/A   Clear
5:55 PM 42.8 °F 34.3 °F 23.0 °F 46% 30.14 in 10.0 mi NNW 19.6 mph - N/A   Clear
6:35 PM 42.8 °F 34.3 °F 24.8 °F 49% 30.14 in 10.0 mi NNW 19.6 mph - N/A   Clear
6:55 PM 42.8 °F 33.8 °F 24.8 °F 49% 30.14 in 10.0 mi NNW 21.9 mph - N/A   Clear
7:15 PM 41.0 °F 32.8 °F 24.8 °F 53% 30.14 in 10.0 mi NNW 16.1 mph - N/A   Clear
7:35 PM 41.0 °F 32.8 °F 24.8 °F 53% 30.14 in 10.0 mi NNW 16.1 mph - N/A   Clear
7:55 PM 41.0 °F 33.5 °F 23.0 °F 49% 30.15 in 10.0 mi NNW 13.8 mph - N/A   Clear
8:15 PM 41.0 °F 31.9 °F 23.0 °F 49% 30.14 in 10.0 mi NNW 19.6 mph - N/A   Clear
8:35 PM 37.4 °F 25.9 °F 24.8 °F 60% 30.15 in 10.0 mi NNW 25.3 mph - N/A   Clear
8:55 PM 37.4 °F 26.9 °F 26.6 °F 65% 30.16 in 10.0 mi NNW 20.7 mph - N/A   Clear
9:15 PM 37.4 °F 27.2 °F 24.8 °F 60% 30.16 in 10.0 mi NNW 19.6 mph - N/A   Clear
9:35 PM 37.4 °F 27.2 °F 23.0 °F 56% 30.17 in 10.0 mi NNW 19.6 mph - N/A   Clear
9:55 PM 35.6 °F 24.8 °F 23.0 °F 60% 30.18 in 10.0 mi NNW 19.6 mph - N/A   Clear
10:15 PM 35.6 °F 25.5 °F 23.0 °F 60% 30.18 in 10.0 mi NW 17.3 mph - N/A   Clear
10:35 PM 35.6 °F 25.9 °F 23.0 °F 60% 30.18 in 10.0 mi NW 16.1 mph - N/A   Clear
11:15 PM 33.8 °F 23.2 °F 23.0 °F 65% 30.18 in 10.0 mi WNW 17.3 mph - N/A   Clear
11:35 PM 33.8 °F 23.2 °F 23.0 °F 65% 30.18 in 10.0 mi NW 17.3 mph - N/A   Clear
11:55 PM 33.8 °F 24.3 °F 23.0 °F 65% 30.18 in 10.0 mi NW 13.8 mph - N/A   Clear